#timestamp,LO_Frequency,Hit,StdDev 
1674666015.3,286046997.1,N
1674666035.1,286046997.1,N
1674666055.9,286046998.8,N
1674666075.7,286047000.7,N
1674666095.6,286046999.3,N
1674666115.4,286047002.2,N
1674666135.2,286047001.3,N
1674666155.1,286047001.8,N
1674666156.0,286047001.8,N
1674666175.8,286047004.1,N
1674666195.7,286047003.4,N
1674666215.5,286047007.0,Y
1674666235.3,286047005.3,P
1674666255.2,286047004.0,N
1674666275.0,286047001.5,N
1674666275.9,286047001.5,N
1674666295.8,286047001.3,N
1674666315.6,286047001.0,N
1674666335.4,286046998.3,N
1674666355.3,286046996.6,N
1674666375.1,286046999.5,N
1674666395.9,286046998.2,N
1674666415.7,286047000.9,N
1674666435.5,286047000.9,N
1674666455.4,286047000.8,N
1674666475.2,286046996.9,N
1674666495.0,286046995.4,N
1674666495.9,286046995.4,N
1674666515.8,286046996.6,N
1674666535.6,286046998.3,N
1674666555.5,286047001.2,N
1674666575.3,286047000.6,N
1674666595.2,286047002.3,N
1674666615.9,286047000.3,N
1674666635.7,286046998.7,N
1674666655.6,286046998.4,N
1674666675.4,286046999.4,N
1674666695.2,286046999.1,N
1674666715.1,286046998.2,N
1674666716.0,286046998.2,N
1674666735.8,286046999.4,N
1674666755.7,286046997.1,N
1674666775.5,286046997.5,N
1674666795.3,286046998.2,N
1674666815.2,286046999.3,N
1674666835.0,286046998.0,N
1674666835.9,286046998.0,N
1674666855.8,286046996.8,N
1674666875.6,286046999.3,N
1674666895.4,286046998.6,N
1674666915.3,286047000.1,N
1674666935.1,286047000.9,N
1674666955.9,286047001.1,N
1674666975.7,286047000.1,N
1674666995.5,286047001.8,N
1674667015.4,286047000.6,N
1674667065.2,286047002.7,E
1674667075.2,286046999.2,N
1674667095.9,286046997.6,P
1674667115.7,286046995.3,P
1674667135.6,286046995.7,N
1674667155.4,286046997.6,N
1674667175.3,286046999.5,N
1674667195.1,286046996.6,N
1674667196.0,286046996.6,N
1674667215.8,286046996.4,N
1674667235.7,286046996.3,N
1674667255.5,286046995.8,Y
1674667275.3,286047001.0,P
1674667295.2,286047003.8,N
1674667315.0,286047004.1,N
1674667315.9,286047004.1,N
1674667335.8,286047001.6,N
1674667355.6,286047002.5,N
1674667375.4,286046999.2,N
1674667395.3,286046999.4,N
1674667415.1,286046999.1,N
1674667435.9,286047001.0,N
1674667455.7,286046999.6,N
1674667475.5,286046999.5,N
1674667495.4,286046998.1,N
1674667515.2,286047001.0,N
1674667535.0,286047000.6,N
1674667535.9,286047000.6,N
1674667555.8,286047005.5,N
1674667575.6,286047003.9,N
1674667595.5,286047001.6,N
1674667615.3,286047004.0,N
1674667635.1,286047004.9,N
1674667655.9,286047002.9,N
1674667675.7,286047003.6,N
1674667695.5,286047003.0,N
1674667715.4,286047006.8,Y
1674667735.2,286047002.1,P
1674667755.1,286047002.6,P
1674667756.0,286047002.6,P
1674667775.8,286047004.2,Y
1674667795.6,286047001.1,P
1674667815.5,286046998.9,N
1674667835.3,286047004.0,N
1674667855.1,286047002.0,N
1674667875.9,286046998.6,N
1674667895.7,286046999.3,N
1674667915.6,286046999.2,N
1674667935.4,286046998.7,N
1674667955.2,286046996.2,N
1674667975.1,286046996.0,N
1674667976.0,286046996.0,N
1674667995.8,286046996.5,N
1674668015.6,286046998.8,N
1674668035.5,286046995.0,N
1674668055.3,286046997.9,N
1674668075.2,286046995.2,N
1674668095.9,286046993.7,N
1674668115.7,286046993.8,N
1674668135.6,286046997.7,N
1674668155.4,286046995.5,N
1674668175.2,286046994.9,N
1674668195.1,286046995.3,N
1674668196.0,286046995.3,N
1674668215.8,286046995.3,N
1674668235.7,286046997.6,N
1674668255.5,286046996.9,N
1674668275.3,286046998.4,N
1674668295.2,286046999.6,N
1674668315.0,286046998.9,N
1674668315.9,286046998.9,N
1674668335.8,286046997.5,N
1674668355.6,286046994.9,N
1674668375.4,286047001.2,N
1674668395.3,286046999.0,N
1674668415.1,286046998.2,N
1674668435.8,286046996.8,N
1674668455.7,286046995.2,N
1674668475.5,286046991.7,Y
1674668495.4,286046997.8,P
1674668515.2,286046999.6,N
1674668535.0,286046998.8,N
1674668535.9,286046998.8,N
1674668555.8,286046998.9,N
1674668575.6,286046998.0,N
1674668595.5,286046996.9,Y
1674668615.3,286046998.3,P
1674668635.1,286046996.6,P
1674668655.9,286046996.7,P
1674668675.7,286047000.7,N
1674668695.6,286047000.4,N
1674668715.4,286047001.7,N
1674668735.2,286047001.6,N
1674668755.1,286047001.3,N
1674668756.0,286047001.3,N
1674668775.8,286047000.3,N
1674668795.6,286047002.7,N
1674668815.5,286047000.0,N
1674668835.3,286047002.6,N
1674668855.2,286047001.6,N
1674668875.9,286047003.4,N
1674668895.7,286047005.3,N
1674668915.6,286047003.3,N
1674668935.4,286047004.0,N
1674668955.2,286047001.6,N
1674668975.1,286047004.3,N
1674668976.0,286047004.3,N
1674668995.8,286047004.1,N
1674669015.7,286047004.9,N
1674669035.5,286047003.0,N
1674669055.3,286047005.6,N
1674669075.2,286047003.3,N
1674669095.9,286047001.6,N
1674669115.7,286047001.7,N
1674669135.6,286047000.7,N
1674669155.4,286046999.0,N
1674669175.3,286046996.7,N
1674669195.1,286046995.3,N
1674669196.0,286046995.3,N
1674669215.8,286046999.5,N
1674669235.7,286046996.5,N
1674669255.5,286046998.6,N
1674669275.3,286047000.9,N
1674669295.2,286047004.1,N
1674669315.0,286047002.1,N
1674669315.9,286047002.1,N
1674669335.8,286047000.1,N
1674669355.6,286047000.2,N
1674669375.4,286047000.1,N
1674669395.3,286047000.6,N
1674669415.1,286047004.4,N
1674669435.8,286047001.7,N
1674669455.7,286047002.4,N
1674669475.5,286047002.0,N
1674669495.4,286047002.5,N
1674669515.2,286047005.6,N
1674669535.0,286047003.3,N
1674669535.9,286047003.3,N
1674669555.8,286047003.6,N
1674669575.6,286047005.6,N
1674669595.4,286047003.2,N
